Time,TemperatureF,DewpointF,PressureIn,WindDirection,WindDirectionDegrees,WindSpeedMPH,WindSpeedGustMPH,Humidity,HourlyPrecipIn,Conditions,Clouds,dailyrainin,SoftwareType,DateUTC
2013-04-27 00:00:00,54.1,25.6,29.85,North,0,0.0,0.0,33,0.00,,,0.00,Weather View 32 v70,2013-04-27 07:00:00,
2013-04-27 00:06:00,54.0,26.2,29.85,North,0,0.0,0.0,34,0.00,,,0.00,Weather View 32 v70,2013-04-27 07:06:00,
2013-04-27 00:15:00,53.8,26.0,29.85,North,0,0.0,0.0,34,0.00,,,0.00,Weather View 32 v70,2013-04-27 07:15:00,
2013-04-27 00:20:00,53.8,26.7,29.85,North,0,0.0,0.0,35,0.00,,,0.00,Weather View 32 v70,2013-04-27 07:20:00,
2013-04-27 00:30:00,53.8,26.7,29.85,North,0,0.0,0.0,35,0.00,,,0.00,Weather View 32 v70,2013-04-27 07:30:00,
2013-04-27 00:35:00,53.6,26.6,29.85,North,0,0.0,0.0,35,0.00,,,0.00,Weather View 32 v70,2013-04-27 07:35:00,
2013-04-27 00:40:00,53.6,26.6,29.85,North,0,0.0,0.0,35,0.00,,,0.00,Weather View 32 v70,2013-04-27 07:40:00,
2013-04-27 00:45:00,53.4,27.1,29.85,North,0,0.0,0.0,36,0.00,,,0.00,Weather View 32 v70,2013-04-27 07:45:00,
2013-04-27 00:50:00,53.4,27.1,29.85,North,0,0.0,0.0,36,0.00,,,0.00,Weather View 32 v70,2013-04-27 07:50:00,
2013-04-27 01:00:00,53.6,27.2,29.83,North,0,0.0,3.0,36,0.00,,,0.00,Weather View 32 v70,2013-04-27 08:00:00,
2013-04-27 01:05:00,53.6,27.2,29.83,North,0,0.0,3.0,36,0.00,,,0.00,Weather View 32 v70,2013-04-27 08:05:00,
2013-04-27 01:10:00,53.6,27.2,29.83,North,0,0.0,3.0,36,0.00,,,0.00,Weather View 32 v70,2013-04-27 08:10:00,
2013-04-27 01:20:00,53.6,27.2,29.85,North,0,0.0,3.0,36,0.00,,,0.00,Weather View 32 v70,2013-04-27 08:20:00,
2013-04-27 01:25:00,53.6,27.2,29.85,North,0,0.0,3.0,36,0.00,,,0.00,Weather View 32 v70,2013-04-27 08:25:00,
2013-04-27 01:30:00,53.6,27.2,29.85,North,0,0.0,3.0,36,0.00,,,0.00,Weather View 32 v70,2013-04-27 08:30:00,
2013-04-27 01:35:00,53.6,27.2,29.85,North,0,0.0,3.0,36,0.00,,,0.00,Weather View 32 v70,2013-04-27 08:35:00,
2013-04-27 01:45:00,53.4,27.7,29.85,North,0,0.0,3.0,37,0.00,,,0.00,Weather View 32 v70,2013-04-27 08:45:00,
2013-04-27 01:50:00,53.4,27.7,29.85,North,0,0.0,3.0,37,0.00,,,0.00,Weather View 32 v70,2013-04-27 08:50:00,
2013-04-27 01:55:00,53.4,27.7,29.85,North,0,0.0,0.0,37,0.00,,,0.00,Weather View 32 v70,2013-04-27 08:55:00,
2013-04-27 02:00:00,53.2,27.6,29.85,North,0,0.0,0.0,37,0.00,,,0.00,Weather View 32 v70,2013-04-27 09:00:00,
2013-04-27 02:07:00,53.2,27.6,29.85,North,0,0.0,0.0,37,0.00,,,0.00,Weather View 32 v70,2013-04-27 09:07:00,
2013-04-27 02:15:00,53.1,27.4,29.85,North,0,0.0,0.0,37,0.00,,,0.00,Weather View 32 v70,2013-04-27 09:15:00,
2013-04-27 02:20:00,53.1,27.4,29.85,North,0,0.0,0.0,37,0.00,,,0.00,Weather View 32 v70,2013-04-27 09:20:00,
2013-04-27 02:25:00,53.1,27.4,29.85,North,0,0.0,0.0,37,0.00,,,0.00,Weather View 32 v70,2013-04-27 09:25:00,
2013-04-27 02:30:00,52.9,27.3,29.83,North,0,0.0,0.0,37,0.00,,,0.00,Weather View 32 v70,2013-04-27 09:30:00,
2013-04-27 02:40:00,52.9,27.3,29.83,North,0,0.0,0.0,37,0.00,,,0.00,Weather View 32 v70,2013-04-27 09:40:00,
2013-04-27 02:45:00,52.7,27.8,29.83,North,0,0.0,0.0,38,0.00,,,0.00,Weather View 32 v70,2013-04-27 09:45:00,
2013-04-27 02:50:00,52.7,27.8,29.83,North,0,0.0,0.0,38,0.00,,,0.00,Weather View 32 v70,2013-04-27 09:50:00,
2013-04-27 02:55:00,52.9,27.3,29.83,North,0,0.0,0.0,37,0.00,,,0.00,Weather View 32 v70,2013-04-27 09:55:00,
2013-04-27 03:05:00,52.7,27.1,29.83,North,0,0.0,0.0,37,0.00,,,0.00,Weather View 32 v70,2013-04-27 10:05:00,
2013-04-27 03:10:00,52.5,26.9,29.83,North,0,0.0,0.0,37,0.00,,,0.00,Weather View 32 v70,2013-04-27 10:10:00,
2013-04-27 03:15:00,52.5,26.9,29.83,North,0,0.0,0.0,37,0.00,,,0.00,Weather View 32 v70,2013-04-27 10:15:00,
2013-04-27 03:25:00,52.3,26.8,29.83,North,0,0.0,0.0,37,0.00,,,0.00,Weather View 32 v70,2013-04-27 10:25:00,
2013-04-27 03:30:00,52.3,26.8,29.83,North,0,0.0,0.0,37,0.00,,,0.00,Weather View 32 v70,2013-04-27 10:30:00,
2013-04-27 03:35:00,52.3,26.8,29.83,North,0,0.0,0.0,37,0.00,,,0.00,Weather View 32 v70,2013-04-27 10:35:00,
2013-04-27 03:40:00,52.2,27.3,29.83,North,0,0.0,0.0,38,0.00,,,0.00,Weather View 32 v70,2013-04-27 10:40:00,
2013-04-27 03:45:00,52.2,27.3,29.83,North,0,0.0,0.0,38,0.00,,,0.00,Weather View 32 v70,2013-04-27 10:45:00,
2013-04-27 03:55:00,52.2,27.3,29.83,North,0,0.0,0.0,38,0.00,,,0.00,Weather View 32 v70,2013-04-27 10:55:00,
2013-04-27 04:00:00,52.2,27.3,29.83,North,0,0.0,2.0,38,0.00,,,0.00,Weather View 32 v70,2013-04-27 11:00:00,
2013-04-27 04:05:00,52.2,27.3,29.83,North,0,0.0,3.0,38,0.00,,,0.00,Weather View 32 v70,2013-04-27 11:05:00,
2013-04-27 04:10:00,52.2,27.3,29.83,North,0,0.0,3.0,38,0.00,,,0.00,Weather View 32 v70,2013-04-27 11:10:00,
2013-04-27 04:20:00,52.0,26.5,29.83,North,0,0.0,3.0,37,0.00,,,0.00,Weather View 32 v70,2013-04-27 11:20:00,
2013-04-27 04:25:00,52.0,26.5,29.83,North,0,0.0,3.0,37,0.00,,,0.00,Weather View 32 v70,2013-04-27 11:25:00,
2013-04-27 04:30:00,52.0,26.5,29.83,North,0,0.0,3.0,37,0.00,,,0.00,Weather View 32 v70,2013-04-27 11:30:00,
2013-04-27 04:35:00,51.8,26.3,29.83,North,0,0.0,3.0,37,0.00,,,0.00,Weather View 32 v70,2013-04-27 11:35:00,
2013-04-27 04:45:00,51.6,26.1,29.83,North,0,0.0,3.0,37,0.00,,,0.00,Weather View 32 v70,2013-04-27 11:45:00,
2013-04-27 04:50:00,51.4,25.3,29.83,North,0,0.0,4.0,36,0.00,,,0.00,Weather View 32 v70,2013-04-27 11:50:00,
2013-04-27 04:55:00,51.6,25.5,29.83,North,0,0.0,4.0,36,0.00,,,0.00,Weather View 32 v70,2013-04-27 11:55:00,
2013-04-27 05:00:00,51.4,25.3,29.83,North,0,0.0,4.0,36,0.00,,,0.00,Weather View 32 v70,2013-04-27 12:00:00,
2013-04-27 05:09:00,51.4,25.3,29.83,North,0,0.0,4.0,36,0.00,,,0.00,Weather View 32 v70,2013-04-27 12:09:00,
2013-04-27 05:15:00,51.4,25.3,29.83,North,0,0.0,4.0,36,0.00,,,0.00,Weather View 32 v70,2013-04-27 12:15:00,
2013-04-27 05:20:00,51.3,25.2,29.83,North,0,0.0,4.0,36,0.00,,,0.00,Weather View 32 v70,2013-04-27 12:20:00,
2013-04-27 05:25:00,51.3,25.2,29.83,North,0,0.0,4.0,36,0.00,,,0.00,Weather View 32 v70,2013-04-27 12:25:00,
2013-04-27 05:35:00,51.3,25.2,29.83,North,0,0.0,4.0,36,0.00,,,0.00,Weather View 32 v70,2013-04-27 12:35:00,
2013-04-27 05:40:00,51.3,23.8,29.83,North,0,0.0,4.0,34,0.00,,,0.00,Weather View 32 v70,2013-04-27 12:40:00,
2013-04-27 05:45:00,51.3,23.8,29.80,North,0,0.0,4.0,34,0.00,,,0.00,Weather View 32 v70,2013-04-27 12:45:00,
2013-04-27 05:50:00,51.4,22.5,29.80,North,357,0.0,4.0,32,0.00,,,0.00,Weather View 32 v70,2013-04-27 12:50:00,
2013-04-27 05:55:00,51.6,23.4,29.80,North,357,0.0,4.0,33,0.00,,,0.00,Weather View 32 v70,2013-04-27 12:55:00,
2013-04-27 06:05:00,51.6,22.7,29.83,South,180,3.0,4.0,32,0.00,,,0.00,Weather View 32 v70,2013-04-27 13:05:00,
2013-04-27 06:10:00,51.6,22.7,29.80,SSE,150,3.0,4.0,32,0.00,,,0.00,Weather View 32 v70,2013-04-27 13:10:00,
2013-04-27 06:15:00,51.6,21.1,29.80,South,178,3.0,5.0,30,0.00,,,0.00,Weather View 32 v70,2013-04-27 13:15:00,
2013-04-27 06:25:00,51.6,21.9,29.80,SSE,162,0.0,5.0,31,0.00,,,0.00,Weather View 32 v70,2013-04-27 13:25:00,
2013-04-27 06:30:00,51.6,21.9,29.80,South,183,4.0,5.0,31,0.00,,,0.00,Weather View 32 v70,2013-04-27 13:30:00,
2013-04-27 06:35:00,51.6,21.1,29.80,SW,217,0.0,5.0,30,0.00,,,0.00,Weather View 32 v70,2013-04-27 13:35:00,
2013-04-27 06:40:00,51.8,21.3,29.80,South,182,0.0,5.0,30,0.00,,,0.00,Weather View 32 v70,2013-04-27 13:40:00,
2013-04-27 06:50:00,52.0,20.7,29.80,SSE,155,3.0,8.0,29,0.00,,,0.00,Weather View 32 v70,2013-04-27 13:50:00,
2013-04-27 06:55:00,52.0,20.7,29.80,South,175,2.0,8.0,29,0.00,,,0.00,Weather View 32 v70,2013-04-27 13:55:00,
2013-04-27 07:00:00,52.2,20.8,29.80,SE,129,2.0,8.0,29,0.00,,,0.00,Weather View 32 v70,2013-04-27 14:00:00,
2013-04-27 07:05:00,52.3,21.0,29.80,North,10,0.0,8.0,29,0.00,,,0.00,Weather View 32 v70,2013-04-27 14:05:00,
2013-04-27 07:10:00,52.3,21.0,29.80,South,179,0.0,8.0,29,0.00,,,0.00,Weather View 32 v70,2013-04-27 14:10:00,
2013-04-27 07:20:00,52.3,21.0,29.83,SSW,197,4.0,8.0,29,0.00,,,0.00,Weather View 32 v70,2013-04-27 14:20:00,
2013-04-27 07:25:00,52.3,21.0,29.83,South,186,0.0,8.0,29,0.00,,,0.00,Weather View 32 v70,2013-04-27 14:25:00,
2013-04-27 07:30:00,52.3,21.0,29.83,SSE,168,4.0,8.0,29,0.00,,,0.00,Weather View 32 v70,2013-04-27 14:30:00,
2013-04-27 07:35:00,52.3,21.0,29.83,SSW,203,3.0,8.0,29,0.00,,,0.00,Weather View 32 v70,2013-04-27 14:35:00,
2013-04-27 07:45:00,52.3,21.0,29.83,South,188,4.0,7.0,29,0.00,,,0.00,Weather View 32 v70,2013-04-27 14:45:00,
2013-04-27 07:50:00,52.5,21.1,29.83,South,189,3.0,8.0,29,0.00,,,0.00,Weather View 32 v70,2013-04-27 14:50:00,
2013-04-27 07:55:00,52.5,21.1,29.83,SE,138,4.0,8.0,29,0.00,,,0.00,Weather View 32 v70,2013-04-27 14:55:00,
2013-04-27 08:00:00,52.7,20.4,29.80,SSW,208,3.0,8.0,28,0.00,,,0.00,Weather View 32 v70,2013-04-27 15:00:00,
2013-04-27 08:10:00,52.7,21.3,29.80,SW,228,4.0,8.0,29,0.00,,,0.00,Weather View 32 v70,2013-04-27 15:10:00,
2013-04-27 08:15:00,52.7,20.4,29.80,South,180,3.0,8.0,28,0.00,,,0.00,Weather View 32 v70,2013-04-27 15:15:00,
2013-04-27 08:20:00,52.7,21.3,29.80,SSW,197,0.0,8.0,29,0.00,,,0.00,Weather View 32 v70,2013-04-27 15:20:00,
2013-04-27 08:30:00,52.7,20.4,29.80,SSW,201,4.0,8.0,28,0.00,,,0.00,Weather View 32 v70,2013-04-27 15:30:00,
2013-04-27 08:35:00,52.7,20.4,29.80,SSW,203,4.0,12.0,28,0.00,,,0.00,Weather View 32 v70,2013-04-27 15:35:00,
2013-04-27 08:40:00,52.7,21.3,29.80,SSW,211,6.0,12.0,29,0.00,,,0.00,Weather View 32 v70,2013-04-27 15:40:00,
2013-04-27 08:45:00,52.7,21.3,29.83,South,180,2.0,12.0,29,0.00,,,0.00,Weather View 32 v70,2013-04-27 15:45:00,
2013-04-27 08:50:00,52.7,20.4,29.83,SSW,212,4.0,12.0,28,0.00,,,0.00,Weather View 32 v70,2013-04-27 15:50:00,
2013-04-27 09:00:00,52.7,20.4,29.83,SW,229,4.0,12.0,28,0.00,,,0.00,Weather View 32 v70,2013-04-27 16:00:00,
2013-04-27 09:05:00,52.7,20.4,29.83,SE,144,0.0,12.0,28,0.00,,,0.00,Weather View 32 v70,2013-04-27 16:05:00,
2013-04-27 09:10:00,52.7,20.4,29.83,SSE,161,2.0,12.0,28,0.00,,,0.00,Weather View 32 v70,2013-04-27 16:10:00,
2013-04-27 09:15:00,52.7,20.4,29.83,ESE,109,3.0,12.0,28,0.00,,,0.00,Weather View 32 v70,2013-04-27 16:15:00,
2013-04-27 09:25:00,52.7,21.3,29.83,SE,146,0.0,12.0,29,0.00,,,0.00,Weather View 32 v70,2013-04-27 16:25:00,
2013-04-27 09:30:00,52.5,21.1,29.83,WSW,237,6.0,12.0,29,0.00,,,0.00,Weather View 32 v70,2013-04-27 16:30:00,
2013-04-27 09:35:00,52.7,21.3,29.83,SE,131,4.0,9.0,29,0.00,,,0.00,Weather View 32 v70,2013-04-27 16:35:00,
2013-04-27 09:40:00,52.5,21.1,29.83,West,262,3.0,9.0,29,0.00,,,0.00,Weather View 32 v70,2013-04-27 16:40:00,
2013-04-27 09:50:00,52.3,21.0,29.83,SSE,163,3.0,9.0,29,0.00,,,0.00,Weather View 32 v70,2013-04-27 16:50:00,
2013-04-27 09:55:00,52.3,21.0,29.83,SE,134,5.0,9.0,29,0.00,,,0.00,Weather View 32 v70,2013-04-27 16:55:00,
2013-04-27 10:00:00,52.3,21.0,29.83,West,265,0.0,9.0,29,0.00,,,0.00,Weather View 32 v70,2013-04-27 17:00:00,
2013-04-27 10:05:00,52.3,21.8,29.83,SSW,211,4.0,9.0,30,0.00,,,0.00,Weather View 32 v70,2013-04-27 17:05:00,
2013-04-27 10:10:00,52.3,21.8,29.83,SE,137,0.0,9.0,30,0.00,,,0.00,Weather View 32 v70,2013-04-27 17:10:00,
2013-04-27 10:20:00,52.3,21.8,29.85,SE,136,0.0,9.0,30,0.00,,,0.00,Weather View 32 v70,2013-04-27 17:20:00,
2013-04-27 10:25:00,52.2,22.4,29.85,South,181,2.0,9.0,31,0.00,,,0.00,Weather View 32 v70,2013-04-27 17:25:00,
2013-04-27 10:30:00,52.2,22.4,29.85,SSW,202,0.0,9.0,31,0.00,,,0.00,Weather View 32 v70,2013-04-27 17:30:00,
2013-04-27 10:35:00,52.2,22.4,29.85,SSW,200,2.0,9.0,31,0.00,,,0.00,Weather View 32 v70,2013-04-27 17:35:00,
2013-04-27 10:45:00,52.0,23.0,29.85,SSE,152,3.0,8.0,32,0.00,,,0.00,Weather View 32 v70,2013-04-27 17:45:00,
2013-04-27 10:50:00,52.0,23.0,29.85,South,170,0.0,8.0,32,0.00,,,0.00,Weather View 32 v70,2013-04-27 17:50:00,
2013-04-27 11:00:00,52.0,24.4,29.85,ESE,108,3.0,8.0,34,0.00,,,0.00,Weather View 32 v70,2013-04-27 18:00:00,
2013-04-27 11:05:00,52.0,25.1,29.85,ESE,111,3.0,8.0,35,0.00,,,0.00,Weather View 32 v70,2013-04-27 18:05:00,
2013-04-27 11:12:00,51.8,25.0,29.85,West,260,3.0,8.0,35,0.00,,,0.00,Weather View 32 v70,2013-04-27 18:12:00,
2013-04-27 11:20:00,51.8,25.6,29.85,ESE,106,4.0,6.0,36,0.00,,,0.00,Weather View 32 v70,2013-04-27 18:20:00,
2013-04-27 11:25:00,51.8,25.6,29.85,ESE,112,0.0,6.0,36,0.00,,,0.00,Weather View 32 v70,2013-04-27 18:25:00,
2013-04-27 11:30:00,52.0,25.8,29.85,ESE,115,3.0,6.0,36,0.00,,,0.00,Weather View 32 v70,2013-04-27 18:30:00,
2013-04-27 11:40:00,52.0,25.8,29.88,SSE,153,4.0,6.0,36,0.00,,,0.00,Weather View 32 v70,2013-04-27 18:40:00,
2013-04-27 11:45:00,52.0,25.8,29.88,South,184,0.0,6.0,36,0.00,,,0.00,Weather View 32 v70,2013-04-27 18:45:00,
2013-04-27 11:50:00,52.0,26.5,29.88,SSW,213,3.0,6.0,37,0.00,,,0.00,Weather View 32 v70,2013-04-27 18:50:00,
2013-04-27 11:55:00,52.2,26.6,29.88,SSE,151,3.0,6.0,37,0.00,,,0.00,Weather View 32 v70,2013-04-27 18:55:00,
2013-04-27 12:05:00,52.2,26.6,29.88,South,184,0.0,6.0,37,0.00,,,0.00,Weather View 32 v70,2013-04-27 19:05:00,
2013-04-27 12:10:00,52.2,26.6,29.88,South,186,3.0,6.0,37,0.00,,,0.00,Weather View 32 v70,2013-04-27 19:10:00,
2013-04-27 12:15:00,52.2,26.6,29.88,SSW,197,3.0,5.0,37,0.00,,,0.00,Weather View 32 v70,2013-04-27 19:15:00,
2013-04-27 12:20:00,52.2,26.6,29.88,South,189,4.0,6.0,37,0.00,,,0.00,Weather View 32 v70,2013-04-27 19:20:00,
2013-04-27 12:30:00,52.2,26.6,29.88,SSE,159,0.0,6.0,37,0.00,,,0.00,Weather View 32 v70,2013-04-27 19:30:00,
2013-04-27 12:35:00,52.2,26.6,29.88,SE,143,3.0,6.0,37,0.00,,,0.00,Weather View 32 v70,2013-04-27 19:35:00,
2013-04-27 12:40:00,51.8,27.6,29.88,South,190,0.0,6.0,39,0.00,,,0.00,Weather View 32 v70,2013-04-27 19:40:00,
2013-04-27 12:45:00,51.6,28.0,29.85,East,87,0.0,6.0,40,0.00,,,0.00,Weather View 32 v70,2013-04-27 19:45:00,
2013-04-27 12:55:00,51.4,29.1,29.85,ENE,71,3.0,6.0,42,0.00,,,0.00,Weather View 32 v70,2013-04-27 19:55:00,
2013-04-27 13:00:00,51.4,29.6,29.88,SSE,155,0.0,6.0,43,0.00,,,0.00,Weather View 32 v70,2013-04-27 20:00:00,
2013-04-27 13:05:00,51.4,30.2,29.88,SSE,155,3.0,6.0,44,0.00,,,0.00,Weather View 32 v70,2013-04-27 20:05:00,
2013-04-27 13:10:00,51.3,30.6,29.88,SSW,198,0.0,6.0,45,0.00,,,0.00,Weather View 32 v70,2013-04-27 20:10:00,
2013-04-27 13:15:00,50.9,30.3,29.88,South,181,0.0,6.0,45,0.00,,,0.00,Weather View 32 v70,2013-04-27 20:15:00,
2013-04-27 13:25:00,50.5,31.0,29.88,South,180,0.0,6.0,47,0.00,,,0.00,Weather View 32 v70,2013-04-27 20:25:00,
2013-04-27 13:30:00,50.5,32.1,29.88,WSW,239,0.0,6.0,49,0.00,,,0.00,Weather View 32 v70,2013-04-27 20:30:00,
2013-04-27 13:35:00,50.5,32.1,29.88,SSW,210,2.0,6.0,49,0.00,,,0.00,Weather View 32 v70,2013-04-27 20:35:00,
2013-04-27 13:40:00,50.2,32.2,29.88,SSW,210,0.0,5.0,50,0.00,,,0.00,Weather View 32 v70,2013-04-27 20:40:00,
2013-04-27 13:45:00,50.4,32.9,29.88,SW,218,0.0,5.0,51,0.00,,,0.00,Weather View 32 v70,2013-04-27 20:45:00,
2013-04-27 13:55:00,50.5,34.0,29.88,SSE,159,4.0,5.0,53,0.00,,,0.00,Weather View 32 v70,2013-04-27 20:55:00,
2013-04-27 14:00:00,50.7,34.6,29.85,SSE,147,0.0,5.0,54,0.00,,,0.00,Weather View 32 v70,2013-04-27 21:00:00,
2013-04-27 14:05:00,50.7,35.1,29.85,SSE,148,2.0,5.0,55,0.00,,,0.00,Weather View 32 v70,2013-04-27 21:05:00,
2013-04-27 14:10:00,50.7,35.1,29.85,South,169,0.0,4.0,55,0.00,,,0.00,Weather View 32 v70,2013-04-27 21:10:00,
2013-04-27 14:20:00,51.1,36.3,29.85,South,169,3.0,4.0,57,0.00,,,0.00,Weather View 32 v70,2013-04-27 21:20:00,
2013-04-27 14:25:00,51.4,37.1,29.85,SSE,157,4.0,4.0,58,0.00,,,0.00,Weather View 32 v70,2013-04-27 21:25:00,
2013-04-27 14:30:00,51.6,37.3,29.85,ESE,110,3.0,4.0,58,0.00,,,0.00,Weather View 32 v70,2013-04-27 21:30:00,
2013-04-27 14:35:00,52.0,38.1,29.85,SW,214,0.0,4.0,59,0.00,,,0.00,Weather View 32 v70,2013-04-27 21:35:00,
2013-04-27 14:45:00,52.5,38.6,29.85,SE,143,2.0,8.0,59,0.00,,,0.00,Weather View 32 v70,2013-04-27 21:45:00,
2013-04-27 14:50:00,52.5,37.2,29.85,SW,216,0.0,8.0,56,0.00,,,0.00,Weather View 32 v70,2013-04-27 21:50:00,
2013-04-27 14:55:00,52.7,36.5,29.85,SSE,152,5.0,9.0,54,0.00,,,0.00,Weather View 32 v70,2013-04-27 21:55:00,
2013-04-27 15:00:00,52.9,36.2,29.85,SSE,159,4.0,9.0,53,0.00,,,0.00,Weather View 32 v70,2013-04-27 22:00:00,
2013-04-27 15:10:00,53.1,35.4,29.85,South,183,4.0,9.0,51,0.00,,,0.00,Weather View 32 v70,2013-04-27 22:10:00,
2013-04-27 15:15:00,53.2,35.5,29.85,SSE,147,0.0,9.0,51,0.00,,,0.00,Weather View 32 v70,2013-04-27 22:15:00,
2013-04-27 15:20:00,53.6,35.9,29.85,SW,216,3.0,9.0,51,0.00,,,0.00,Weather View 32 v70,2013-04-27 22:20:00,
2013-04-27 15:25:00,53.6,35.4,29.85,SE,125,4.0,9.0,50,0.00,,,0.00,Weather View 32 v70,2013-04-27 22:25:00,
2013-04-27 15:30:00,53.6,33.8,29.85,SE,131,3.0,9.0,47,0.00,,,0.00,Weather View 32 v70,2013-04-27 22:30:00,
2013-04-27 15:40:00,53.8,33.4,29.85,SSW,200,4.0,9.0,46,0.00,,,0.00,Weather View 32 v70,2013-04-27 22:40:00,
2013-04-27 15:45:00,53.8,33.4,29.85,SSE,155,8.0,9.0,46,0.00,,,0.00,Weather View 32 v70,2013-04-27 22:45:00,
2013-04-27 15:50:00,53.8,32.3,29.85,SSW,200,4.0,13.0,44,0.00,,,0.00,Weather View 32 v70,2013-04-27 22:50:00,
2013-04-27 15:55:00,53.8,32.9,29.85,SSW,193,6.0,13.0,45,0.00,,,0.00,Weather View 32 v70,2013-04-27 22:55:00,
2013-04-27 16:05:00,53.8,33.4,29.85,SE,140,3.0,13.0,46,0.00,,,0.00,Weather View 32 v70,2013-04-27 23:05:00,
2013-04-27 16:10:00,53.8,32.9,29.85,South,186,3.0,13.0,45,0.00,,,0.00,Weather View 32 v70,2013-04-27 23:10:00,
2013-04-27 16:15:00,53.8,32.3,29.85,SE,143,3.0,13.0,44,0.00,,,0.00,Weather View 32 v70,2013-04-27 23:15:00,
2013-04-27 16:24:00,53.8,32.9,29.83,SW,225,4.0,13.0,45,0.00,,,0.00,Weather View 32 v70,2013-04-27 23:24:00,
2013-04-27 16:30:00,53.8,33.4,29.83,SE,142,4.0,13.0,46,0.00,,,0.00,Weather View 32 v70,2013-04-27 23:30:00,
2013-04-27 16:35:00,53.8,32.9,29.83,SE,126,5.0,13.0,45,0.00,,,0.00,Weather View 32 v70,2013-04-27 23:35:00,
2013-04-27 16:40:00,54.0,33.6,29.83,SW,214,3.0,13.0,46,0.00,,,0.00,Weather View 32 v70,2013-04-27 23:40:00,
2013-04-27 16:45:00,54.0,33.6,29.83,ESE,120,0.0,13.0,46,0.00,,,0.00,Weather View 32 v70,2013-04-27 23:45:00,
2013-04-27 16:55:00,54.0,33.1,29.83,SSW,198,3.0,9.0,45,0.00,,,0.00,Weather View 32 v70,2013-04-27 23:55:00,
2013-04-27 17:00:00,54.0,33.6,29.85,West,264,2.0,9.0,46,0.00,,,0.00,Weather View 32 v70,2013-04-28 00:00:00,
2013-04-27 17:05:00,54.0,33.6,29.85,SSE,160,6.0,9.0,46,0.00,,,0.00,Weather View 32 v70,2013-04-28 00:05:00,
2013-04-27 17:10:00,54.0,33.6,29.83,WSW,238,3.0,9.0,46,0.00,,,0.00,Weather View 32 v70,2013-04-28 00:10:00,
2013-04-27 17:15:00,54.0,33.6,29.83,NE,56,3.0,9.0,46,0.00,,,0.00,Weather View 32 v70,2013-04-28 00:15:00,
2013-04-27 17:25:00,54.0,33.1,29.83,NNW,328,2.0,9.0,45,0.00,,,0.00,Weather View 32 v70,2013-04-28 00:25:00,
2013-04-27 17:30:00,54.0,31.9,29.83,SSW,207,5.0,11.0,43,0.00,,,0.00,Weather View 32 v70,2013-04-28 00:30:00,
2013-04-27 17:35:00,54.0,31.3,29.83,SSW,212,0.0,11.0,42,0.00,,,0.00,Weather View 32 v70,2013-04-28 00:35:00,
2013-04-27 17:40:00,54.0,31.9,29.83,ESE,116,4.0,11.0,43,0.00,,,0.00,Weather View 32 v70,2013-04-28 00:40:00,
2013-04-27 17:50:00,54.1,32.1,29.83,ENE,68,3.0,11.0,43,0.00,,,0.00,Weather View 32 v70,2013-04-28 00:50:00,
2013-04-27 17:55:00,54.0,31.9,29.83,SSE,149,5.0,11.0,43,0.00,,,0.00,Weather View 32 v70,2013-04-28 00:55:00,
2013-04-27 18:00:00,54.0,31.3,29.83,SE,125,7.0,11.0,42,0.00,,,0.00,Weather View 32 v70,2013-04-28 01:00:00,
2013-04-27 18:05:00,54.0,31.3,29.83,ENE,68,3.0,11.0,42,0.00,,,0.00,Weather View 32 v70,2013-04-28 01:05:00,
2013-04-27 18:10:00,54.0,31.3,29.83,SSW,199,0.0,11.0,42,0.00,,,0.00,Weather View 32 v70,2013-04-28 01:10:00,
2013-04-27 18:16:00,54.0,31.3,29.83,NE,34,3.0,11.0,42,0.00,,,0.00,Weather View 32 v70,2013-04-28 01:16:00,
2013-04-27 18:25:00,54.0,30.7,29.83,ESE,122,6.0,11.0,41,0.00,,,0.00,Weather View 32 v70,2013-04-28 01:25:00,
2013-04-27 18:30:00,54.0,31.3,29.83,ESE,121,0.0,11.0,42,0.00,,,0.00,Weather View 32 v70,2013-04-28 01:30:00,
2013-04-27 18:35:00,54.0,31.3,29.83,North,9,0.0,11.0,42,0.00,,,0.00,Weather View 32 v70,2013-04-28 01:35:00,
2013-04-27 18:45:00,53.8,30.6,29.83,SE,137,0.0,11.0,41,0.00,,,0.00,Weather View 32 v70,2013-04-28 01:45:00,
2013-04-27 18:50:00,53.8,31.2,29.83,North,0,3.0,11.0,42,0.00,,,0.00,Weather View 32 v70,2013-04-28 01:50:00,
2013-04-27 18:55:00,53.8,31.2,29.83,SE,135,4.0,11.0,42,0.00,,,0.00,Weather View 32 v70,2013-04-28 01:55:00,
2013-04-27 19:00:00,53.6,30.4,29.83,WNW,296,3.0,11.0,41,0.00,,,0.00,Weather View 32 v70,2013-04-28 02:00:00,
2013-04-27 19:05:00,53.6,30.4,29.83,NNW,343,3.0,11.0,41,0.00,,,0.00,Weather View 32 v70,2013-04-28 02:05:00,
2013-04-27 19:10:00,53.6,30.4,29.83,South,178,3.0,11.0,41,0.00,,,0.00,Weather View 32 v70,2013-04-28 02:10:00,
2013-04-27 19:16:00,53.4,30.9,29.83,SE,141,3.0,11.0,42,0.00,,,0.00,Weather View 32 v70,2013-04-28 02:16:00,
2013-04-27 19:25:00,53.2,30.7,29.83,South,176,4.0,8.0,42,0.00,,,0.00,Weather View 32 v70,2013-04-28 02:25:00,
2013-04-27 19:30:00,53.2,30.1,29.83,SSW,204,0.0,8.0,41,0.00,,,0.00,Weather View 32 v70,2013-04-28 02:30:00,
2013-04-27 19:35:00,53.2,30.7,29.83,WSW,243,5.0,8.0,42,0.00,,,0.00,Weather View 32 v70,2013-04-28 02:35:00,
2013-04-27 19:44:00,53.2,30.7,29.83,NW,320,0.0,8.0,42,0.00,,,0.00,Weather View 32 v70,2013-04-28 02:44:00,
2013-04-27 19:50:00,53.1,30.5,29.83,SE,144,2.0,8.0,42,0.00,,,0.00,Weather View 32 v70,2013-04-28 02:50:00,
2013-04-27 19:55:00,53.1,30.5,29.83,WNW,283,4.0,9.0,42,0.00,,,0.00,Weather View 32 v70,2013-04-28 02:55:00,
2013-04-27 20:00:00,53.1,30.5,29.83,SW,226,3.0,9.0,42,0.00,,,0.00,Weather View 32 v70,2013-04-28 03:00:00,
2013-04-27 20:05:00,52.9,30.4,29.83,ENE,63,2.0,9.0,42,0.00,,,0.00,Weather View 32 v70,2013-04-28 03:05:00,
2013-04-27 20:10:00,52.9,31.0,29.83,WSW,253,4.0,9.0,43,0.00,,,0.00,Weather View 32 v70,2013-04-28 03:10:00,
2013-04-27 20:17:00,52.9,31.0,29.83,WNW,289,4.0,9.0,43,0.00,,,0.00,Weather View 32 v70,2013-04-28 03:17:00,
2013-04-27 20:25:00,52.7,30.8,29.85,WNW,303,0.0,9.0,43,0.00,,,0.00,Weather View 32 v70,2013-04-28 03:25:00,
2013-04-27 20:30:00,52.7,31.4,29.85,NNW,327,4.0,9.0,44,0.00,,,0.00,Weather View 32 v70,2013-04-28 03:30:00,
2013-04-27 20:35:00,52.7,31.4,29.85,SW,223,0.0,9.0,44,0.00,,,0.00,Weather View 32 v70,2013-04-28 03:35:00,
2013-04-27 20:45:00,52.5,31.2,29.85,West,275,0.0,9.0,44,0.00,,,0.00,Weather View 32 v70,2013-04-28 03:45:00,
2013-04-27 20:55:00,52.5,31.8,29.85,West,265,0.0,8.0,45,0.00,,,0.00,Weather View 32 v70,2013-04-28 03:55:00,
2013-04-27 21:00:00,52.3,32.1,29.83,ESE,103,3.0,8.0,46,0.00,,,0.00,Weather View 32 v70,2013-04-28 04:00:00,
2013-04-27 21:05:00,52.3,32.1,29.83,SW,234,2.0,8.0,46,0.00,,,0.00,Weather View 32 v70,2013-04-28 04:05:00,
2013-04-27 21:10:00,52.3,32.1,29.83,NE,49,3.0,8.0,46,0.00,,,0.00,Weather View 32 v70,2013-04-28 04:10:00,
2013-04-27 21:14:00,52.3,32.1,29.83,ENE,78,3.0,7.0,46,0.00,,,0.00,Weather View 32 v70,2013-04-28 04:14:00,
2013-04-27 21:18:00,52.3,32.1,29.83,ENE,78,3.0,7.0,46,0.00,,,0.00,Weather View 32 v70,2013-04-28 04:18:00,
2013-04-27 21:25:00,52.2,32.0,29.83,West,278,4.0,6.0,46,0.00,,,0.00,Weather View 32 v70,2013-04-28 04:25:00,
2013-04-27 21:30:00,52.2,32.0,29.85,West,272,4.0,6.0,46,0.00,,,0.00,Weather View 32 v70,2013-04-28 04:30:00,
2013-04-27 21:35:00,52.2,32.0,29.85,West,266,4.0,6.0,46,0.00,,,0.00,Weather View 32 v70,2013-04-28 04:35:00,
2013-04-27 21:40:00,52.2,32.0,29.85,South,184,0.0,6.0,46,0.00,,,0.00,Weather View 32 v70,2013-04-28 04:40:00,
2013-04-27 21:45:00,52.2,32.0,29.85,ENE,74,0.0,6.0,46,0.00,,,0.00,Weather View 32 v70,2013-04-28 04:45:00,
2013-04-27 21:50:00,52.2,32.5,29.85,ENE,68,3.0,6.0,47,0.00,,,0.00,Weather View 32 v70,2013-04-28 04:50:00,
2013-04-27 21:55:00,52.2,32.5,29.85,North,357,3.0,6.0,47,0.00,,,0.00,Weather View 32 v70,2013-04-28 04:55:00,
2013-04-27 22:00:00,52.0,32.3,29.85,ENE,57,0.0,9.0,47,0.00,,,0.00,Weather View 32 v70,2013-04-28 05:00:00,
2013-04-27 22:05:00,52.0,32.3,29.85,ENE,63,3.0,9.0,47,0.00,,,0.00,Weather View 32 v70,2013-04-28 05:05:00,
2013-04-27 22:10:00,52.0,32.3,29.85,ENE,57,2.0,9.0,47,0.00,,,0.00,Weather View 32 v70,2013-04-28 05:10:00,
2013-04-27 22:15:00,52.0,32.3,29.85,WNW,300,0.0,9.0,47,0.00,,,0.00,Weather View 32 v70,2013-04-28 05:15:00,
2013-04-27 22:25:00,52.0,32.9,29.85,ENE,69,3.0,9.0,48,0.00,,,0.00,Weather View 32 v70,2013-04-28 05:25:00,
2013-04-27 22:30:00,51.8,32.7,29.85,West,278,6.0,9.0,48,0.00,,,0.00,Weather View 32 v70,2013-04-28 05:30:00,
2013-04-27 22:35:00,51.8,32.7,29.85,East,95,0.0,9.0,48,0.00,,,0.00,Weather View 32 v70,2013-04-28 05:35:00,
2013-04-27 22:40:00,51.8,32.7,29.85,West,276,5.0,9.0,48,0.00,,,0.00,Weather View 32 v70,2013-04-28 05:40:00,
2013-04-27 22:45:00,51.8,32.7,29.85,West,275,0.0,9.0,48,0.00,,,0.00,Weather View 32 v70,2013-04-28 05:45:00,
2013-04-27 22:55:00,51.6,32.5,29.85,WNW,299,3.0,9.0,48,0.00,,,0.00,Weather View 32 v70,2013-04-28 05:55:00,
2013-04-27 23:00:00,51.6,32.5,29.85,SE,145,0.0,6.0,48,0.00,,,0.00,Weather View 32 v70,2013-04-28 06:00:00,
2013-04-27 23:05:00,51.6,32.5,29.85,SSE,148,2.0,6.0,48,0.00,,,0.00,Weather View 32 v70,2013-04-28 06:05:00,
2013-04-27 23:10:00,51.6,32.5,29.85,NE,40,0.0,6.0,48,0.00,,,0.00,Weather View 32 v70,2013-04-28 06:10:00,
2013-04-27 23:15:00,51.6,32.5,29.85,NE,35,0.0,6.0,48,0.00,,,0.00,Weather View 32 v70,2013-04-28 06:15:00,
2013-04-27 23:25:00,51.6,33.0,29.85,NE,39,0.0,6.0,49,0.00,,,0.00,Weather View 32 v70,2013-04-28 06:25:00,
2013-04-27 23:30:00,51.6,33.0,29.85,NW,307,3.0,6.0,49,0.00,,,0.00,Weather View 32 v70,2013-04-28 06:30:00,
2013-04-27 23:35:00,51.6,33.0,29.85,ENE,57,3.0,5.0,49,0.00,,,0.00,Weather View 32 v70,2013-04-28 06:35:00,
2013-04-27 23:40:00,51.6,33.0,29.85,North,0,0.0,5.0,49,0.00,,,0.00,Weather View 32 v70,2013-04-28 06:40:00,
2013-04-27 23:45:00,51.6,33.0,29.85,ESE,119,0.0,5.0,49,0.00,,,0.00,Weather View 32 v70,2013-04-28 06:45:00,
2013-04-27 23:55:00,51.6,32.5,29.85,West,263,0.0,5.0,48,0.00,,,0.00,Weather View 32 v70,2013-04-28 06:55:00,